Weather History for KMUT - January, 2013

Change the Weather History Date:

Friday, January 25, 2013

  Actual Average Record
Temperature  
Mean Temperature 28 °F -  
Max Temperature 39 °F 33 °F 63 °F (1981)
Min Temperature 15 °F 14 °F -9 °F (1961)
Degree Days  
Heating Degree Days 37    
Moisture  
Dew Point 10 °F    
Average Humidity 50    
Maximum Humidity 64    
Minimum Humidity 30    
Precipitation  
Precipitation 0.00 in - - ()
Sea Level Pressure  
Sea Level Pressure 30.14 in    
Wind  
Wind Speed 10 mph (West)    
Max Wind Speed 24 mph    
Max Gust Speed 30 mph    
Visibility 10 miles    
Events Snow    
Averages and records for this station are not official NWS values.
T = Trace of Precipitation, MM = Missing Value Source: NWS Daily Summary

Daily Weather History Graph

Daily Weather History Graph

Search for Another Location

Airport or City:

Trip Planner

Search our weather history database for the weather conditions in past years. The results will help you decide how hot, cold, wet, or windy it might be!

Date:

Astronomy

Jan. 25, 2013 Rise Set
Actual Time 7:21 AM CST 5:12 PM CST
Civil Twilight 6:52 AM CST 5:42 PM CST
Nautical Twilight 6:18 AM CST 6:15 PM CST
Astronomical Twilight 5:46 AM CST 6:48 PM CST
Moon 4:09 PM CST (1/25) 6:01 AM CST (1/25)
Length of Visible Light 10h 49m
Length of Day
9h 50m
Waxing Gibbous, 98% of the Moon is Illuminated
Jan 25
Waxing Gibbous
Jan 26
Full
Feb 3
Last Quarter
Feb 10
New
Feb 17
First Quarter

Hourly Weather History & Observations

Time (CST) Temp. Windchill Dew Point Humidity Pressure Visibility Wind Dir Wind Speed Gust Speed Precip Events Conditions
12:15 AM 23.0 °F 13.9 °F 5.0 °F 46% 30.27 in 10.0 mi SSE 8.1 mph - N/A   Overcast
12:35 AM 23.0 °F 12.4 °F 5.0 °F 46% 30.24 in 10.0 mi SSE 10.4 mph - N/A   Overcast
12:55 AM 23.0 °F 11.7 °F 5.0 °F 46% 30.22 in 10.0 mi SSE 11.5 mph - N/A   Overcast
1:15 AM 23.0 °F 13.9 °F 5.0 °F 46% 30.22 in 10.0 mi SSE 8.1 mph - N/A   Overcast
1:35 AM 24.8 °F 17.9 °F 6.8 °F 46% 30.22 in 10.0 mi SSE 5.8 mph - N/A   Overcast
1:55 AM 24.8 °F 17.9 °F 6.8 °F 46% 30.21 in 10.0 mi SSE 5.8 mph - N/A   Overcast
2:15 AM 24.8 °F 16.9 °F 6.8 °F 46% 30.22 in 10.0 mi South 6.9 mph - N/A   Overcast
2:35 AM 23.0 °F 13.9 °F 8.6 °F 54% 30.20 in 7.0 mi SSE 8.1 mph - N/A Snow Light Snow
2:55 AM 23.0 °F 15.8 °F 10.4 °F 59% 30.19 in 10.0 mi SSE 5.8 mph - N/A   Overcast
3:15 AM 21.2 °F 16.4 °F 10.4 °F 63% 30.18 in 10.0 mi SE 3.5 mph - N/A   Overcast
3:35 AM 21.2 °F 16.4 °F 10.4 °F 63% 30.16 in 10.0 mi SSE 3.5 mph - N/A   Overcast
3:55 AM 23.0 °F 17.0 °F 10.4 °F 59% 30.14 in 10.0 mi SSE 4.6 mph - N/A Snow Light Snow
4:15 AM 23.0 °F 17.0 °F 10.4 °F 59% 30.15 in 10.0 mi South 4.6 mph - N/A   Overcast
4:35 AM 23.0 °F - 12.2 °F 63% 30.16 in 10.0 mi Calm Calm - N/A   Overcast
4:55 AM 23.0 °F 17.0 °F 10.4 °F 59% 30.15 in 10.0 mi SSW 4.6 mph - N/A   Overcast
5:15 AM 23.0 °F 17.0 °F 10.4 °F 59% 30.15 in 10.0 mi SW 4.6 mph - N/A   Overcast
5:35 AM 23.0 °F 15.8 °F 12.2 °F 63% 30.14 in 10.0 mi SW 5.8 mph - N/A   Overcast
5:55 AM 23.0 °F 15.8 °F 12.2 °F 63% 30.12 in 10.0 mi SSW 5.8 mph - N/A   Overcast
6:15 AM 23.0 °F 15.8 °F 12.2 °F 63% 30.13 in 10.0 mi SW 5.8 mph - N/A   Overcast
6:35 AM 23.0 °F 14.7 °F 12.2 °F 63% 30.13 in 10.0 mi SW 6.9 mph - N/A   Overcast
6:55 AM 23.0 °F 13.9 °F 12.2 °F 63% 30.14 in 10.0 mi WSW 8.1 mph - N/A   Overcast
7:35 AM 23.0 °F 15.8 °F 12.2 °F 63% 30.12 in 10.0 mi WSW 5.8 mph - N/A   Overcast
7:55 AM 23.0 °F 14.7 °F 12.2 °F 63% 30.12 in 10.0 mi WSW 6.9 mph - N/A   Overcast
8:15 AM 24.8 °F 15.3 °F 12.2 °F 59% 30.12 in 10.0 mi WSW 9.2 mph - N/A   Overcast
8:35 AM 24.8 °F 16.1 °F 12.2 °F 59% 30.12 in 10.0 mi WSW 8.1 mph - N/A   Overcast
8:55 AM 24.8 °F 13.4 °F 12.2 °F 59% 30.12 in 10.0 mi WSW 12.7 mph - N/A   Overcast
9:15 AM 24.8 °F 14.0 °F 12.2 °F 59% 30.11 in 10.0 mi WSW 11.5 mph - N/A   Mostly Cloudy
9:35 AM 26.6 °F 15.7 °F 12.2 °F 55% 30.11 in 10.0 mi WSW 12.7 mph 17.3 mph N/A   Clear
9:55 AM 28.4 °F 17.0 °F 12.2 °F 51% 30.10 in 10.0 mi West 15.0 mph - N/A   Clear
10:15 AM 28.4 °F 18.0 °F 10.4 °F 47% 30.10 in 10.0 mi West 12.7 mph - N/A   Clear
10:35 AM 30.2 °F 19.3 °F 10.4 °F 44% 30.11 in 10.0 mi West 15.0 mph 19.6 mph N/A   Clear
10:55 AM 30.2 °F 19.3 °F 8.6 °F 40% 30.10 in 10.0 mi West 15.0 mph 19.6 mph N/A   Clear
11:15 AM 32.0 °F 21.6 °F 8.6 °F 38% 30.09 in 10.0 mi West 15.0 mph 23.0 mph N/A   Clear
11:35 AM 33.8 °F 24.3 °F 8.6 °F 35% 30.07 in 10.0 mi WSW 13.8 mph - N/A   Clear
11:55 AM 33.8 °F 24.3 °F 8.6 °F 35% 30.06 in 10.0 mi WSW 13.8 mph - N/A   Clear
12:15 PM 35.6 °F 25.2 °F 6.8 °F 30% 30.05 in 10.0 mi West 18.4 mph - N/A   Clear
12:35 PM 35.6 °F 25.5 °F 8.6 °F 33% 30.04 in 10.0 mi West 17.3 mph 21.9 mph N/A   Clear
12:55 PM 37.4 °F 28.2 °F 8.6 °F 30% 30.04 in 10.0 mi WSW 16.1 mph - N/A   Clear
1:15 PM 37.4 °F 26.9 °F 8.6 °F 30% 30.03 in 10.0 mi West 20.7 mph - N/A   Clear
1:35 PM 37.4 °F 27.2 °F 10.4 °F 33% 30.03 in 10.0 mi West 19.6 mph 28.8 mph N/A   Clear
1:55 PM 39.2 °F 28.7 °F 10.4 °F 31% 30.03 in 10.0 mi West 23.0 mph 28.8 mph N/A   Clear
2:15 PM 39.2 °F 28.7 °F 10.4 °F 31% 30.03 in 10.0 mi West 23.0 mph 26.5 mph N/A   Clear
2:35 PM 39.2 °F 28.7 °F 10.4 °F 31% 30.03 in 10.0 mi WNW 23.0 mph 26.5 mph N/A   Clear
2:55 PM 39.2 °F 29.0 °F 12.2 °F 33% 30.03 in 10.0 mi West 21.9 mph 27.6 mph N/A   Clear
3:15 PM 37.4 °F 27.2 °F 12.2 °F 36% 30.04 in 10.0 mi WNW 19.6 mph 24.2 mph N/A   Clear
3:35 PM 37.4 °F 26.9 °F 15.8 °F 41% 30.04 in 10.0 mi WNW 20.7 mph 25.3 mph N/A   Clear
3:55 PM 37.4 °F 26.4 °F 17.6 °F 45% 30.05 in 10.0 mi West 23.0 mph 29.9 mph N/A   Clear
4:15 PM 35.6 °F 23.7 °F 17.6 °F 48% 30.06 in 10.0 mi WNW 24.2 mph - N/A   Clear
4:35 PM 35.6 °F 25.2 °F 17.6 °F 48% 30.07 in 10.0 mi WNW 18.4 mph 21.9 mph N/A   Clear
4:55 PM 33.8 °F 23.5 °F 17.6 °F 52% 30.08 in 10.0 mi West 16.1 mph 24.2 mph N/A   Clear
5:15 PM 33.8 °F 24.3 °F 17.6 °F 52% 30.08 in 10.0 mi West 13.8 mph 17.3 mph N/A   Clear
5:35 PM 32.0 °F 24.2 °F 17.6 °F 55% 30.08 in 10.0 mi West 9.2 mph - N/A   Clear
5:55 PM 30.2 °F 21.3 °F 17.6 °F 60% 30.09 in 10.0 mi West 10.4 mph - N/A   Clear
6:15 PM 30.2 °F 20.2 °F 17.6 °F 60% 30.10 in 10.0 mi West 12.7 mph 17.3 mph N/A   Clear
6:35 PM 30.2 °F 21.3 °F 17.6 °F 60% 30.11 in 10.0 mi WNW 10.4 mph - N/A   Clear
6:55 PM 30.2 °F 21.3 °F 17.6 °F 60% 30.11 in 10.0 mi NW 10.4 mph 16.1 mph N/A   Clear
7:15 PM 28.4 °F 19.7 °F 17.6 °F 64% 30.13 in 10.0 mi NNW 9.2 mph 19.6 mph N/A   Clear
7:35 PM 28.4 °F 18.5 °F 14.0 °F 55% 30.14 in 10.0 mi NW 11.5 mph 21.9 mph N/A   Clear
7:55 PM 26.6 °F 15.2 °F 12.2 °F 55% 30.15 in 10.0 mi North 13.8 mph - N/A   Clear
8:15 PM 24.8 °F 14.6 °F 8.6 °F 50% 30.16 in 10.0 mi North 10.4 mph - N/A   Clear
8:35 PM 23.0 °F 10.6 °F 6.8 °F 50% 30.17 in 10.0 mi North 13.8 mph - N/A   Clear
8:55 PM 21.2 °F 8.9 °F 1.4 °F 42% 30.19 in 10.0 mi North 12.7 mph - N/A   Clear
9:15 PM 19.4 °F 7.9 °F 1.4 °F 46% 30.20 in 10.0 mi NNW 10.4 mph 16.1 mph N/A   Clear
9:35 PM 19.4 °F 8.6 °F 1.4 °F 46% 30.22 in 10.0 mi NNW 9.2 mph - N/A   Clear
9:55 PM 19.4 °F 6.0 °F -0.4 °F 42% 30.23 in 10.0 mi NNW 13.8 mph - N/A   Clear
10:15 PM 19.4 °F 8.6 °F -0.4 °F 42% 30.24 in 10.0 mi NNW 9.2 mph - N/A   Clear
10:35 PM 17.6 °F 5.7 °F 1.4 °F 49% 30.25 in 10.0 mi NNW 10.4 mph 18.4 mph N/A   Clear
10:55 PM 17.6 °F 5.7 °F 1.4 °F 49% 30.26 in 10.0 mi NNW 10.4 mph - N/A   Clear
11:15 PM 17.6 °F 5.7 °F 1.4 °F 49% 30.27 in 10.0 mi NNW 10.4 mph - N/A   Clear
11:35 PM 17.6 °F 5.0 °F 1.4 °F 49% 30.28 in 10.0 mi North 11.5 mph - N/A   Clear
11:55 PM 15.8 °F 3.4 °F 1.4 °F 53% 30.29 in 10.0 mi NNW 10.4 mph - N/A   Clear